Regional Weather Roundup
Issued by NWS

Home | Current Version | Previous Version | Graphics & Text | Print | Product List | Glossary On
Versions: 1 2 3 4 5 6 7 8 9 10 11 12 13 14 15 16 17 18 19 20 21 22 23 24 25 26 27 28 29 30 31 32 33 34 35 36 37 38 39 40 41 42 43 44 45 46 47 48 49 50
000
ASUS43 KDTX 151510
RWRMI
MICHIGAN HOURLY REGIONAL WEATHER ROUNDUP
NATIONAL WEATHER SERVICE DETROIT/PONTIAC MI
1100 AM EDT MON SEP 15 2014

NOTE: "FAIR" INDICATES FEW OR NO CLOUDS BELOW 12,000 FEET WITH NO
SIGNIFICANT WEATHER AND/OR OBSTRUCTION TO VISIBILITY.

MIZ047>049-052>055-059>063-066>070-074>076-081>083-151600-
SOUTHEAST LOWER MICHIGAN

CITY           SKY/WX    TMP DP  RH WIND       PRES   REMARKS
ADRIAN         CLOUDY    53  49  86 W3        30.19S
ALMA           CLOUDY    52  49  87 SW3       30.16S
ANN ARBOR      CLOUDY    55  49  80 MISG      30.16F
BAD AXE        CLOUDY    56  51  81 SW5       30.15S
CARO           CLOUDY    55  49  81 SW7       30.15S
DETROIT CITY   CLOUDY    60  48  64 SW6       30.17F
DETROIT        CLOUDY    54  48  80 SE3       30.16F
FLINT          CLOUDY    56  48  74 S5        30.16F
GROSSE ILE     LGT RAIN  55  50  82 CALM      30.16F
HILLSDALE      LGT RAIN  54  50  86 SW5       30.18S
HOWELL         CLOUDY    53  48  83 SW5       30.17S

CITY           SKY/WX    TMP DP  RH WIND       PRES   REMARKS
JACKSON        CLOUDY    54  49  83 SW6       30.18R
LAMBERTVILLE   CLOUDY    59  50  72 CALM      30.15F
LANSING        CLOUDY    53  47  79 S3        30.17S
LAPEER         CLOUDY    55  48  75 SW5       30.17F
MASON          CLOUDY    52  48  86 CALM      30.16F
MONROE         CLOUDY    54  52  94 CALM      30.14F
MT. CLEMENS    CLOUDY    58  46  66 W3        30.14F
PONTIAC        CLOUDY    55  46  71 SW3       30.16F
PORT HOPE        N/A     56  47  71 SW7       30.13R
PORT HURON     PTSUNNY   57  52  82 S6        30.18F
TRI CITIES     CLOUDY    55  48  77 SW7       30.17R
TROY           CLOUDY    56  47  71 CALM      30.18F
SAGINAW HB     CLOUDY    54  48  82 SW9       30.15S
$$
MIZ043>046-050>051-056>058-064>065-071>073-077>080-151600-
SOUTHWEST LOWER MICHIGAN

CITY           SKY/WX    TMP DP  RH WIND       PRES   REMARKS
BATTLE CREEK   CLOUDY    55  47  74 S6        30.16F
BENTON HARBOR  CLOUDY    54  49  83 SE6       30.13F
BIG RAPIDS     LGT RAIN  51  51 100 S6        30.13F
COLDWATER      CLOUDY    55  51  86 S6        30.17S
FREMONT        LGT RAIN  51  50  96 CALM      30.14F
HOLLAND        CLOUDY    57  50  77 S5        30.13F
GRAND RAPIDS   CLOUDY    56  48  74 SE5       30.15F
IONIA          CLOUDY    54  47  80 SW5       30.15S
KALAMAZOO      CLOUDY    56  48  74 S6        30.17F
LUDINGTON      CLOUDY    59  52  78 CALM      30.12F
MARSHALL       CLOUDY    53  48  84 CALM      30.16F
MOUNT PLEASANT CLOUDY    52  49  90 CALM      30.14F
MUSKEGON       CLOUDY    58  52  80 CALM      30.13F
SOUTH HAVEN    CLOUDY    57  51  80 S5        30.14F
$$
MIZ016>042-151600-
NORTHERN LOWER MICHIGAN

CITY           SKY/WX    TMP DP  RH WIND       PRES   REMARKS
ALPENA         CLOUDY    56  49  77 VRB6      30.10S
BEAVER ISLAND  SUNNY     58  44  58 NW5       30.11S
BELLAIRE       CLOUDY    58  48  68 CALM      30.12S
CADILLAC       CLOUDY    55  51  87 W5        30.12F
CHARLEVOIX     MOSUNNY   58  45  61 NW7       30.14S
FRANKFORT      DRIZZLE   55  48  78 CALM      30.13S
GAYLORD        CLOUDY    53  46  77 NW7       30.11S
GRAYLING       DRIZZLE   54  50  86 SW3       30.12S
HARBOR SPRINGS MOSUNNY   59  45  58 SW6       30.10F
HOUGHTON LAKE  CLOUDY    55  52  89 SW8       30.12F
MANISTEE       CLOUDY    55  48  76 NW3       30.13F
OSCODA         LGT RAIN  51  50  97 SW7       30.12S
PELLSTON       MOSUNNY   57  47  69 W12       30.10F
ROGERS CITY    CLOUDY    55  50  82 W6        30.10F
TRAVERSE CITY  CLOUDY    55  49  80 VRB3      30.11S
$$
MIZ007>008-015-151600-
EASTERN UPPER MICHIGAN

CITY           SKY/WX    TMP DP  RH WIND       PRES   REMARKS
KINROSS        PTSUNNY   54  46  76 NW9       30.08S
MACKINAC ISLAN PTSUNNY   54  46  74 W9        30.09S
NEWBERRY       SUNNY     54  44  69 W10G18    30.09S
S. S. MARIE    CLOUDY    53  45  74 NW7       30.07S
MUNISING         N/A     58  48  69 NE6       30.09S
$$
MIZ004>006-011>014-085-151600-
CENTRAL UPPER MICHIGAN

CITY           SKY/WX    TMP DP  RH WIND       PRES   REMARKS
MANISTIQUE     SUNNY     56  45  66 NW3       30.10S
ESCANABA       SUNNY     55  45  67 NW3       30.11F
MENOMINEE      MOSUNNY   55  46  71 CALM      30.12S
SAWYER-GWINN   MOSUNNY   54  45  71 W5        30.10S
$$
MIZ001>003-009>011-084-151600-
WESTERN UPPER MICHIGAN

CITY           SKY/WX    TMP DP  RH WIND       PRES   REMARKS
IRON MOUNTAIN  SUNNY     53  45  74 CALM      30.11F
HOUGHTON       PTSUNNY   53  45  74 W13       30.10S
COPPER HARBOR    N/A     53  45  74 N10       30.08S
IRONWOOD       CLOUDY    46  46 100 W10       30.14R
$$

ABBREVIATIONS USED IN REMARKS
   TC - TEMPERATURE IN CELSIUS
  WCI - WIND CHILL INDEX
   HX - HEAT INDEX
  VSB - VISIBILITY



USA.gov is the U.S. government's official web portal to all federal, state and local government web resources and services.